Probability
0 0 0 0 0 0 0 0 0 0 0 0 0 0 0 0 0 0 0 0 0 0 0 0 0 0 0 0 0 0 0 0 0 0 0 0 0 0 0 0 0 0 0 0
0 0 0 0 0 0 0 0 0 0 0 0 0 0 0 0 0 0 0 0 0 0 0 0 0 0 0 0 0 0 0 0 0 0 0 0 0 0 0 0 0 0 0 0
0 0 0 0 0 0 0 0 0 0 0 0 0 0 0 0 0 0 0 0 0 0 0 0 0 0 0 0 0 0 0 0 0 0 0 0 0 0 0 0 0 0 0 0
0 0 0 0 0 0 0 0 0 0 0 0 0 0 0 0 0 0 0 0 0 0 0 0 0 0 0 0 0 0 0 0 0 0 0 0 0 0 0 0 0 0 0 0
0 0 0 0 0 0 0 0 0 0 0 0 0 0 0 0 0 0 0 0 0 0 0 0 0 0 0 0 0 0 0 0 0 0 0 0 0 0 0 0 0 0 0 0
0 0 0 0 0 0 0 0 0 0 0 0 0 0 0 0 0 0 0 0 0 0 0 0 0 0 0 0 0 0 0 0 0 0 0 0 0 0 0 0 0 0 0 0
0 0 0 0 0 0 0 0 0 0 0 0 0 0 0 0 0 0 0 0 0 0 0 0 0 0 0 0 0 0 0 0 0 0 0 0 0 0 0 0 0 0 0 0
0 0 0 0 0 0 0 0 0 0 0 0 0 0 0 0 0 0 0 0 0 0 0 0 0 0 0 0 0 0 0 0 0 0 0 0 0 0 0 0 0 0 0 0
0 0 0 0 0 0 0 0 0 0 0 0 0 0 0 0 0 0 0 0 0 0 0 0 0 0 0 0 0 0 0 0 0 0 0 0 0 0 0 0 0 0 0 0
0 0 0 0 0 0 0 0 0 0 0 0 0 0 0 0 0 0 0 0 0 0 0 0 0 0 0 0 0 0 0 0 0 0 0 0 0 0 0 0 0 0 0 0
0 0 0 0 0 0 0 0 0 0 0 0 0 0 0 0 0 0 0 0 0 0 0 0 0 0 0 0 0 0 0 0 0 0 0 0 0 0 0 0 0 0 0 0
0 0 0 0 0 0 0 0 0 0 0 0 0 0 0 0 0 0 0 0 0 0 0 0 0 0 0 0 0 0 0 0 0 0 0 0 0 0 0 0 0 0 0 0
0 0 0 0 0 0 0 0 0 0 0 0 0 0 0 0 0 0 0 0 0 0 0 0 0 0 0 0 0 0 0 0 0 0 0 0 0 0 0 0 0 0 0 0
0 0 0 0 0 0 0 0 0 0 0 0 0 0 0 0 0 0 0 0 0 0 0 0 0 0 0 0 0 0 0 0 0 0 0 0 0 0 0 0 0 0 0 0
0 0 0 0 0 0 0 0 0 0 0 0 0 0 0 0 0 0 0 0 0 0 0 0 0 0 0 0 0 0 0 0 0 0 0 0 0 0 0 0 0 0 0 0
0 0 0 0 0 0 0 0 0 0 0 0 0 0 0 0 0 0 0 0 0 0 0 0 0 0 0 0 0 0 0 0 0 0 0 0 0 0 0 0 0 0 0 0
0 0 0 0 0 0 0 0 0 0 0 0 0 0 0 0 0 0 0 0 0 0 0 0 0 0 0 0 0 0 0 0 0 0 0 0 0 0 0 0 0 0 0 0
0 0 0 0 0 0 0 0 0 0 0 0 0 0 0 0 0 0 0 0 0 0 0 0 0 0 0 0 0 0 0 0 0 0 0 0 0 0 0 0 0 0 0 0
0 0 0 0 0 0 0 0 0 0 0 0 0 0 0 0 0 0 0 0 0 0 0 0 0 0 0 0 0 0 0 0 0 0 0 0 0 0 0 0 0 0 0 0
0 0 0 0 0 0 0 0 0 0 0 0 0 0 0 0 0 0 0 0 0 0 0 0 0 0 0 0 0 0 0 0 0 0 0 0 0 0 0 0 0 0 0 0
0 0 0 0 0 0 0 0 0 0 0 0 0 0 0 0 0 0 0 0 0 0 0 0 0 0 0 0 0 0 0 0 0 0 0 0 0 0 0 0 0 0 0 0
0 0 0 0 0 0 0 0 0 0 0 0 0 0 0 0 0 0 0 0 0 0 0 0 0 0 0 0 0 0 0 0 0 0 0 0 0 0 0 0 0 0 0 0
0 0 0 0 0 0 0 0 0 0 0 0 0 0 0 0 0 0 0 0 0 0 0 0 0 0 0 0 0 0 0 0 0 0 0 0 0 0 0 0 0 0 0 0
0 0 0 0 0 0 0 0 0 0 0 0 0 0 0 0 0 0 0 0 0 0 0 0 0 0 0 0 0 0 0 0 0 0 0 0 0 0 0 0 0 0 0 0
0 0 0 0 0 0 0 0 0 0 0 0 0 0 0 0 0 0 0 0 0 0 0 0 0 0 0 0 0 0 0 0 0 0 0 0 0 0 0 0 0 0 0 0
0 0 0 0 0 0 0 0 0 0 0 0 0 0 0 0 0 0 0 0 0 0 0 0 0 0 0 0 0 0 0 0 0 0 0 0 0 0 0 0 0 0 0 0
0 0 0 0 0 0 0 0 0 0 0 0 0 0 0 0 0 0 0 0 0 0 0 0 0 0 0 0 0 0 0 0 0 0 0 0 0 0 0 0 0 0 0 0
Wind_Speed
4 3 3 6 8 10 12 10 9 9 10 12 9 7 7 5 4 5 5 6 6 6 5 5 5 5 4 4 4 4 5 4 4 4 3 3 3 3 2 2 2 2 1 1
3 2 3 7 11 12 13 11 13 12 15 12 9 5 6 6 5 6 6 6 6 6 6 6 6 6 5 5 5 5 5 4 4 4 3 3 3 3 3 2 2 2 2 1
3 2 3 10 12 14 11 12 11 14 12 4 5 6 7 6 6 7 7 7 6 7 7 7 7 6 6 6 5 5 5 4 4 4 4 4 3 3 3 3 3 3 2 2
1 1 8 6 3 10 11 12 14 13 10 8 8 7 7 7 8 8 7 6 6 5 5 5 5 5 5 5 5 5 5 5 4 4 4 4 3 4 4 3 3 2 2 2
3 4 10 8 5 8 9 10 13 16 14 10 4 5 7 6 7 8 6 5 4 4 4 4 5 5 5 5 5 5 5 5 5 5 5 5 5 4 4 3 3 2 2 2
4 5 9 5 4 5 4 7 7 12 13 8 4 4 4 3 4 4 3 3 3 3 3 4 4 5 6 5 6 6 6 5 5 5 5 5 5 4 3 3 3 2 2 2
7 8 12 5 6 8 5 6 3 9 10 8 9 7 1 1 2 2 2 2 2 3 3 3 4 6 6 5 6 5 4 4 4 5 5 5 4 3 3 3 3 2 2 2
8 8 12 7 11 11 7 0 2 4 6 8 8 5 2 2 2 2 2 2 3 3 3 2 4 6 6 6 4 3 4 4 4 4 4 4 4 4 3 3 3 3 3 3
13 11 2 10 10 5 0 2 3 3 4 5 5 6 5 4 3 3 3 3 3 3 3 2 3 5 6 4 3 4 4 4 4 3 3 4 4 4 3 3 3 3 3 3
8 12 8 9 9 7 6 6 4 4 3 5 6 5 5 4 3 3 3 3 3 3 3 3 3 4 4 3 4 5 5 4 4 4 4 4 3 4 4 4 4 4 4 4
9 9 6 8 11 11 9 7 6 5 5 6 7 6 6 4 4 3 3 2 3 4 4 4 3 4 3 4 5 5 5 4 4 4 4 4 4 4 4 4 4 5 4 4
11 8 7 6 4 6 8 9 8 7 6 5 7 7 6 5 4 4 3 3 3 4 4 4 4 4 3 4 5 5 5 5 4 4 4 4 3 3 4 5 5 7 6 5
8 4 6 6 4 4 6 7 6 7 7 6 5 6 6 5 4 4 4 4 5 5 4 4 4 4 4 5 5 6 6 5 4 4 4 4 4 4 3 4 6 7 8 8
7 4 6 7 7 5 5 5 4 4 4 4 4 4 4 4 3 4 5 5 4 4 4 4 4 4 3 5 6 6 6 5 5 4 4 4 4 4 4 4 4 4 6 8
9 9 8 4 3 2 2 1 2 4 4 3 3 4 4 5 6 5 4 2 3 3 4 4 4 4 3 4 5 6 5 4 4 4 4 4 4 4 4 5 5 4 3 4
5 6 6 7 8 6 3 3 5 6 4 4 3 4 5 4 4 3 2 3 4 5 5 4 5 4 3 4 5 4 4 5 4 4 4 4 4 4 5 5 5 5 5 5
4 6 6 7 9 7 6 6 6 5 4 4 5 3 2 2 2 3 3 3 4 4 3 4 4 3 4 4 5 4 4 4 5 4 4 5 5 5 5 5 5 5 5 5
7 6 5 5 5 5 5 4 3 3 4 4 2 2 3 4 5 5 3 2 2 3 3 3 3 2 4 4 4 3 3 4 4 5 4 5 5 5 5 5 6 6 5 5
4 5 4 3 3 2 2 3 3 3 2 2 2 3 4 4 4 3 2 3 4 5 4 3 3 3 4 4 4 3 4 4 4 4 4 5 5 5 5 5 6 6 5 5
3 2 2 2 2 1 2 2 2 2 1 1 2 2 3 3 2 2 3 4 5 3 1 2 3 4 4 4 4 3 4 4 4 4 4 5 5 5 5 6 6 6 6 5
3 3 2 2 2 2 2 2 1 2 1 1 3 3 3 2 2 2 3 4 4 2 1 3 3 3 3 3 5 4 4 4 5 5 5 5 5 6 6 6 6 6 6 6
3 2 2 2 2 2 2 1 1 1 1 1 2 2 2 2 2 3 4 4 2 1 2 2 3 3 3 3 4 4 4 5 5 4 5 5 5 5 6 6 6 6 5 6
2 2 2 2 2 2 2 1 1 1 2 2 2 2 3 3 2 3 4 3 2 3 3 3 3 4 4 3 3 4 4 5 5 5 5 5 5 5 5 6 6 5 5 5
3 3 3 2 2 1 2 3 2 1 2 2 2 2 2 2 3 3 3 3 3 4 3 3 4 4 4 3 3 4 4 5 5 5 5 5 5 5 5 5 5 5 5 6
3 3 3 2 2 2 3 3 2 2 2 2 2 2 2 2 3 3 3 3 3 3 3 3 4 4 3 3 4 4 4 5 5 4 5 5 5 5 5 5 5 5 5 6
3 2 2 2 2 2 2 2 2 2 2 2 3 2 2 2 3 3 3 3 3 3 3 2 3 3 3 4 4 4 4 4 4 5 5 5 5 5 5 5 6 6 6 6
3 3 2 3 3 3 2 2 2 3 3 3 3 3 3 3 2 3 3 3 3 3 3 3 3 3 3 3 4 4 4 4 4 4 4 4 4 5 5 6 5 5 5 5
Wind_Direction
274 288 246 236 223 206 212 223 230 247 252 266 275 276 278 271 246 233 229 223 218 215 211 204 199 198 196 197 198 189 185 190 196 190 182 179 176 170 167 169 175 173 169 177
272 239 250 262 243 222 226 233 242 263 269 267 277 273 267 262 247 240 236 229 223 214 208 206 202 199 195 199 196 187 188 197 196 182 177 179 178 170 168 173 174 173 175 179
252 314 292 262 226 203 210 215 213 232 246 253 258 256 256 255 248 246 245 238 227 217 212 207 204 198 198 198 187 185 190 195 193 184 183 185 178 175 180 183 178 177 179 181
242 40 244 252 156 193 213 230 221 241 256 249 252 272 271 255 245 249 247 240 232 220 214 207 198 195 194 186 183 186 191 196 194 187 187 181 181 189 190 183 182 186 183 190
178 241 272 279 199 181 201 252 222 230 248 256 268 291 269 235 226 239 241 239 230 216 206 195 190 184 175 178 180 186 196 200 197 191 186 181 189 197 192 182 183 190 193 200
183 222 243 252 152 166 167 266 216 209 231 232 187 237 256 200 212 235 239 224 207 181 170 180 183 170 169 181 186 197 200 200 196 191 188 189 193 194 187 184 189 187 201 213
208 235 259 246 142 152 189 248 188 199 214 198 204 231 304 144 205 210 206 191 171 164 175 189 172 164 175 187 202 203 188 188 192 190 189 189 186 186 182 181 183 198 211 222
186 216 248 166 157 193 220 121 176 203 206 207 224 245 239 219 216 201 202 191 176 173 181 178 170 174 186 203 200 174 174 184 189 186 183 178 179 181 180 181 188 208 219 234
198 218 247 172 201 223 264 223 224 219 219 214 225 239 241 230 218 212 212 204 188 182 181 181 180 186 197 199 166 165 172 182 184 177 180 178 181 182 182 189 199 211 218 232
241 255 244 229 239 249 240 241 249 242 228 208 221 234 239 233 223 217 210 206 189 177 191 207 195 198 207 175 161 168 179 183 180 181 183 182 189 192 196 199 205 212 220 233
244 264 283 256 235 242 241 242 247 243 235 228 226 236 235 231 227 221 215 205 193 198 210 220 204 204 198 176 163 175 183 185 187 191 190 189 197 206 209 217 216 216 224 228
226 220 213 240 228 220 224 233 234 231 233 226 218 229 229 228 225 216 213 206 207 212 218 221 208 207 195 181 176 179 189 195 195 193 192 197 200 215 226 232 234 236 239 239
240 240 228 255 262 224 228 236 230 225 230 232 224 219 220 227 221 213 212 210 215 218 218 214 208 212 200 185 183 191 199 197 197 196 197 199 204 212 224 227 230 238 241 244
245 249 257 253 255 248 236 240 231 236 234 230 226 214 208 218 218 218 225 224 217 213 213 207 207 219 206 191 191 198 205 202 201 203 205 206 210 216 221 226 231 236 238 245
236 226 242 267 280 276 254 228 228 244 243 239 220 213 209 215 223 229 229 210 198 207 215 208 214 226 201 191 197 202 205 204 206 210 211 213 214 217 221 228 237 244 245 244
242 232 242 254 259 258 245 232 236 246 242 237 231 228 226 226 230 233 219 194 201 219 218 211 223 221 189 189 197 204 210 209 203 208 211 214 215 218 222 227 233 237 239 241
227 240 235 246 251 250 240 233 236 244 239 235 240 239 225 220 226 236 233 222 224 231 220 218 229 205 189 194 199 206 206 204 202 209 216 217 218 222 225 229 234 240 244 239
238 247 241 242 251 251 252 246 240 239 238 242 236 201 199 208 226 235 234 218 217 241 242 241 231 192 195 200 202 205 204 205 204 212 216 219 223 226 227 230 235 241 249 247
256 259 262 262 264 253 259 255 250 250 256 225 200 211 221 229 237 239 210 196 214 236 246 235 223 200 205 207 199 205 206 210 214 217 218 220 224 228 230 233 237 241 244 244
290 289 286 288 296 260 261 274 268 260 255 214 207 220 235 243 237 223 210 220 229 245 254 208 209 208 210 207 205 210 210 213 217 221 221 222 226 230 233 235 238 240 241 241
305 308 301 291 293 295 281 279 258 264 268 211 209 224 238 247 225 212 222 245 251 252 252 208 208 215 211 207 207 214 215 218 221 224 227 229 230 232 234 235 237 238 239 241
316 312 296 288 290 298 305 291 261 259 266 252 249 246 246 252 241 235 236 252 291 242 235 228 227 224 216 207 209 215 218 222 225 226 228 231 234 235 236 236 237 238 239 242
316 310 310 307 296 300 326 327 285 253 248 248 247 247 250 256 247 245 260 259 269 254 247 242 246 228 209 206 215 219 223 225 227 228 231 232 235 238 241 241 241 240 241 242
325 326 321 322 331 337 324 323 320 304 288 276 272 270 270 272 270 260 280 290 270 256 250 250 239 223 208 216 219 222 227 231 234 235 235 237 238 239 242 244 247 247 246 247
332 335 341 342 330 309 309 324 341 342 333 311 305 298 283 274 271 279 279 274 272 265 262 252 236 224 216 224 225 228 232 234 237 239 237 238 239 241 242 243 245 249 250 249
338 329 322 320 315 313 313 314 308 305 305 302 304 303 299 294 290 286 282 279 274 268 267 259 239 227 228 231 233 236 238 238 237 238 241 243 243 243 244 244 247 247 249 251
341 339 333 330 333 332 323 312 303 297 290 286 294 296 295 292 289 290 290 286 280 273 270 265 252 240 238 239 243 245 245 244 242 242 244 245 247 247 248 248 250 251 252 252